| DS18B20 | SHTC3 | ||||||
|---|---|---|---|---|---|---|---|
| ID | Date d/m/Y & Time | data1 สูง | data2 ต่ำ | data3 นอก | temp pcb | hum pcb | Time |
| 1008 | 10/03/2026 00:20:37 | 27.8  | 27.9  | 27.5  | 27.9  | 71.7  | 00:20 |
| 1007 | 10/03/2026 00:15:55 | 27.8  | 27.9  | 27.5  | 27.9  | 71.8  | 00:15 |
| 1006 | 10/03/2026 00:11:14 | 27.9  | 27.9  | 27.5  | 27.9  | 71.7  | 00:11 |
| 1005 | 10/03/2026 00:06:30 | 27.9  | 28.0  | 27.5  | 28.0  | 71.8  | 00:06 |
| 1004 | 10/03/2026 00:01:48 | 27.9  | 28.0  | 27.5  | 27.7  | 71.7  | 00:01 |
| 1003 | 09/03/2026 23:57:07 | 27.9  | 28.0  | 27.5  | 27.9  | 71.8  | 23:57 |
| 1002 | 09/03/2026 23:52:25 | 27.9  | 28.1  | 27.5  | 27.8  | 71.7  | 23:52 |
| 1001 | 09/03/2026 23:47:43 | 27.9  | 28.1  | 27.6  | 28.0  | 71.8  | 23:47 |
| 1000 | 09/03/2026 23:43:02 | 28.0  | 28.1  | 27.6  | 27.9  | 71.8  | 23:43 |
| 999 | 09/03/2026 23:38:21 | 28.0  | 28.1  | 27.6  | 28.1  | 71.8  | 23:38 |
| 998 | 09/03/2026 23:33:39 | 28.0  | 28.1  | 27.6  | 27.9  | 71.7  | 23:33 |
| 997 | 09/03/2026 23:28:57 | 28.0  | 28.1  | 27.6  | 27.7  | 71.8  | 23:28 |
| 996 | 09/03/2026 23:24:15 | 28.1  | 28.1  | 27.6  | 28.1  | 71.9  | 23:24 |
| 995 | 09/03/2026 23:19:33 | 28.1  | 28.2  | 27.6  | 28.2  | 72.0  | 23:19 |
| 994 | 09/03/2026 23:14:51 | 28.1  | 28.2  | 27.6  | 28.1  | 71.9  | 23:14 |
| 993 | 09/03/2026 23:10:08 | 28.1  | 28.2  | 27.6  | 28.1  | 71.9  | 23:10 |
| 992 | 09/03/2026 23:05:26 | 28.1  | 28.2  | 27.6  | 28.1  | 71.8  | 23:05 |
| 991 | 09/03/2026 23:00:44 | 28.2  | 28.2  | 27.7  | 28.1  | 71.9  | 23:00 |
| 990 | 09/03/2026 22:56:02 | 28.2  | 28.2  | 27.7  | 28.2  | 71.9  | 22:56 |
| 989 | 09/03/2026 22:51:18 | 28.2  | 28.3  | 27.7  | 28.2  | 71.8  | 22:51 |
| 988 | 09/03/2026 22:46:36 | 28.2  | 28.3  | 27.7  | 28.2  | 72.0  | 22:46 |
| 987 | 09/03/2026 22:41:54 | 28.2  | 28.3  | 27.7  | 28.4  | 71.9  | 22:41 |
| 986 | 09/03/2026 22:37:13 | 28.2  | 28.4  | 27.7  | 28.2  | 72.0  | 22:37 |
| 985 | 09/03/2026 22:32:30 | 28.3  | 28.4  | 27.7  | 28.4  | 72.0  | 22:32 |